Ukiah, CA

10:47 AM PDT on October 16, 2019 (GMT -0700)
Ukiah Municipal

Weather History for KUKI - September, 2019

Change the Weather History Date:

Thursday, September 19, 2019

  Actual Average Record
Temperature  
Mean Temperature 63 °F 68 °F  
Max Temperature 78 °F 87 °F 108 °F (2000)
Min Temperature 48 °F 49 °F 34 °F (1895)
Degree Days  
Heating Degree Days 2 1  
Month to date heating degree days 4 9  
Since 1 July heating degree days 4 12  
Cooling Degree Days 0 4  
Month to date cooling degree days 91 97  
Year to date cooling degree days 1060 780  
Growing Degree Days 13 (Base 50)    
Moisture  
Dew Point 48 °F    
Average Humidity 64    
Maximum Humidity 93    
Minimum Humidity 30    
Precipitation  
Precipitation 0.00 in 0.02 in 1.65 in (1977)
Month to date precipitation 0.12 0.27  
Year to date precipitation 34.88 23.79  
Snow  
Snow 0.00 in - - ()
Month to date snowfall 0.0  
Since 1 July snowfall 0.0  
Since 1 September snowfall 0.0  
Snow Depth 0.00 in    
Sea Level Pressure  
Sea Level Pressure 29.95 in    
Wind  
Wind Speed 1 mph ()    
Max Wind Speed 14 mph    
Max Gust Speed 18 mph    
Visibility 10.0 miles    
Events      
T = Trace of Precipitation, MM = Missing Value Source: Averaged Metar Reports

Daily Weather History Graph

Daily Weather History Graph

Search for Another Location

Airport or City:

Astronomy

Sep. 19, 2019 Rise Set
Actual Time 6:57 AM PDT 7:14 PM PDT
Civil Twilight 6:30 AM PDT 7:41 PM PDT
Nautical Twilight 5:59 AM PDT 8:12 PM PDT
Astronomical Twilight 5:27 AM PDT 8:44 PM PDT
Moon 10:29 PM PDT (9/19) 12:04 PM PDT (9/19)
Length of Visible Light 13h 10m
Length of Day
12h 17m
Waning Gibbous, 73% of the Moon is Illuminated
Sep 19
Waning Gibbous
Sep 21
Last Quarter
Sep 28
New
Oct 5
First Quarter
Oct 13
Full

Hourly Weather History & Observations

Time (PDT) Temp. Dew Point Humidity Pressure Visibility Wind Dir Wind Speed Gust Speed Precip Events Conditions
12:56 AM 55.9 °F 51.1 °F 84% 29.96 in 10.0 mi Calm Calm - N/A   Clear
1:56 AM 53.1 °F 50.0 °F 89% 29.96 in 10.0 mi Calm Calm - N/A   Clear
2:56 AM 53.1 °F 50.0 °F 89% 29.95 in 10.0 mi Calm Calm - N/A   Clear
3:56 AM 51.1 °F 48.0 °F 89% 29.95 in 10.0 mi Calm Calm - N/A   Clear
4:56 AM 50.0 °F 48.0 °F 93% 29.94 in 10.0 mi Calm Calm - N/A   Clear
5:56 AM 51.1 °F 48.0 °F 89% 29.95 in 10.0 mi Calm Calm - N/A   Clear
6:56 AM 50.0 °F 46.9 °F 89% 29.97 in 10.0 mi Calm Calm - N/A   Clear
7:56 AM 50.0 °F 48.0 °F 93% 29.98 in 10.0 mi Calm Calm - N/A   Clear
8:56 AM 55.9 °F 50.0 °F 80% 29.99 in 10.0 mi Calm Calm - N/A   Clear
9:56 AM 62.1 °F 48.9 °F 62% 29.98 in 10.0 mi North - - N/A   Clear
10:56 AM 64.9 °F 48.0 °F 54% 29.98 in 10.0 mi Calm Calm - N/A   Clear
11:56 AM 68.0 °F 46.9 °F 47% 29.97 in 10.0 mi Calm Calm - N/A   Clear
12:56 PM 72.0 °F 46.9 °F 41% 29.96 in 10.0 mi Calm Calm - N/A   Clear
1:56 PM 75.0 °F 43.0 °F 32% 29.94 in 10.0 mi East 5.8 mph - N/A   Clear
2:56 PM 77.0 °F 44.1 °F 31% 29.92 in 10.0 mi NNW 5.8 mph - N/A   Partly Cloudy
3:56 PM 78.1 °F 45.0 °F 31% 29.91 in 10.0 mi North 6.9 mph - N/A   Clear
4:56 PM 77.0 °F 46.9 °F 34% 29.91 in 10.0 mi NW 13.8 mph - N/A   Clear
5:56 PM 73.9 °F 48.0 °F 40% 29.91 in 10.0 mi NW 8.1 mph - N/A   Clear
6:56 PM 71.1 °F 48.0 °F 44% 29.91 in 10.0 mi West 4.6 mph - N/A   Clear
7:56 PM 66.9 °F 50.0 °F 54% 29.93 in 10.0 mi Variable 3.5 mph - N/A   Clear
8:56 PM 63.0 °F 50.0 °F 63% 29.94 in 10.0 mi Calm Calm - N/A   Clear
9:56 PM 61.0 °F 50.0 °F 67% 29.95 in 10.0 mi Calm Calm - N/A   Clear
10:56 PM 61.0 °F 50.0 °F 67% 29.96 in 10.0 mi Calm Calm - N/A   Clear
11:56 PM 57.9 °F 50.0 °F 75% 29.96 in 10.0 mi Calm Calm - N/A   Clear